Track BPM Size Size Produced Genre Timesort icon Time
Shapes 100 195 1.17 MB Nov 2017 Pop 195 03:15
The Fountain Of Youth 100 195 1.17 MB Jul 2011 Pop 195 03:15
Arizona 85 196 1.18 MB Aug 2010 Pop 196 03:16
Inspirado 120 197 1.18 MB Aug 2011 Pop 197 03:17
Sweet Dreams 112 197 1.18 MB Aug 2010 Pop 197 03:17
Walking On 126 197 1.18 MB May 2012 Pop 197 03:17
Rizzle Razzle 130 198 1.19 MB Dec 2010 Pop 198 03:18
Sine Drops 120 198 1.19 MB Jun 2017 Pop 198 03:18
Smart Girl 120 198 1.19 MB Aug 2010 Pop 198 03:18
And You 137 199 1.19 MB Mar 2016 Pop 199 03:19
ReTumble 129 199 1.19 MB Feb 2011 Pop 199 03:19
Boat Trip 90 200 1.2 MB Nov 2017 Pop 200 03:20
Cliche 120 200 1.2 MB Mar 2011 Pop 200 03:20
Bach-O-Rama 100 201 1.21 MB Aug 2010 Pop 201 03:21
Barrier Between 100 201 1.21 MB Jul 2012 Pop 201 03:21
Hello Synth 117 201 1.21 MB May 2017 Pop 201 03:21
Tubs 120 202 1.21 MB May 2012 Pop 202 03:22
Makers Space Love 120 202 1.21 MB Jul 2011 Pop 202 03:22
I Can See 130 203 1.22 MB Jan 2011 Pop 203 03:23
Burbs 143 203 1.22 MB Jun 2017 Pop 203 03:23
Chance of 1983 120 203 1.22 MB Jul 2011 Pop 203 03:23